Camdenton, MO

8:45 PM CDT on July 24, 2017 (GMT -0500)
Camdenton

Weather History for KH21 - November, 2012

Change the Weather History Date:

Sunday, November 11, 2012

  Actual Average (KAIZ) Record (KAIZ)
Temperature  
Mean Temperature 50 °F -  
Max Temperature 68 °F 54 °F 78 °F (2007)
Min Temperature 32 °F 36 °F 26 °F (2011)
Degree Days  
Heating Degree Days 15    
Moisture  
Dew Point 46 °F    
Average Humidity 82    
Maximum Humidity 100    
Minimum Humidity 64    
Precipitation  
Precipitation 0.56 in - - ()
Sea Level Pressure  
Sea Level Pressure 29.93 in    
Wind  
Wind Speed 14 mph ()    
Max Wind Speed 30 mph    
Max Gust Speed 40 mph    
Visibility 8.6 miles    
Events Rain    
Averages and records for this station are not official NWS values.
T = Trace of Precipitation, MM = Missing Value Source: Averaged Metar Reports

Daily Weather History Graph

Daily Weather History Graph

Search for Another Location

Airport or City:

Trip Planner

Search our weather history database for the weather conditions in past years. The results will help you decide how hot, cold, wet, or windy it might be!

Date:

Astronomy

Nov. 11, 2012 Rise Set
Actual Time 6:47 AM CST 5:01 PM CST
Civil Twilight 6:19 AM CST 5:29 PM CST
Nautical Twilight 5:48 AM CST 6:01 PM CST
Astronomical Twilight 5:17 AM CST 6:32 PM CST
Moon 4:04 AM CST (11/11) 3:24 PM CST (11/11)
Length of Visible Light 11h 09m
Length of Day
10h 14m
Waning Crescent, 7% of the Moon is Illuminated
Nov 11
Waning Crescent
Nov 13
New
Nov 20
First Quarter
Nov 28
Full
Dec 6
Last Quarter

Hourly Weather History & Observations

Time (CST) Temp. Windchill Dew Point Humidity Pressure Visibility Wind Dir Wind Speed Gust Speed Precip Events Conditions
12:15 AM 64.4 °F - 51.8 °F 64% 29.87 in 10.0 mi SSE 13.8 mph 19.6 mph N/A   Clear
12:35 AM 64.4 °F - 51.8 °F 64% 29.87 in 10.0 mi SSE 17.3 mph 25.3 mph N/A   Clear
12:55 AM 64.4 °F - 51.8 °F 64% 29.87 in 10.0 mi SSE 16.1 mph 24.2 mph N/A   Clear
1:15 AM 64.4 °F - 51.8 °F 64% 29.87 in 10.0 mi SSE 16.1 mph 25.3 mph N/A   Clear
1:35 AM 62.6 °F - 51.8 °F 68% 29.86 in 10.0 mi SSE 15.0 mph 25.3 mph N/A   Clear
1:55 AM 62.6 °F - 51.8 °F 68% 29.84 in 10.0 mi SSE 18.4 mph 29.9 mph N/A   Clear
2:15 AM 62.6 °F - 51.8 °F 68% 29.83 in 10.0 mi SE 19.6 mph 26.5 mph N/A   Clear
2:35 AM 62.6 °F - 51.8 °F 68% 29.84 in 10.0 mi SE 17.3 mph 23.0 mph N/A   Clear
2:55 AM 62.6 °F - 51.8 °F 68% 29.82 in 10.0 mi SE 18.4 mph 26.5 mph N/A   Clear
3:15 AM 62.6 °F - 51.8 °F 68% 29.82 in 10.0 mi SE 19.6 mph 26.5 mph N/A   Clear
3:35 AM 62.6 °F - 51.8 °F 68% 29.83 in 10.0 mi SE 12.7 mph 21.9 mph N/A   Clear
3:55 AM 62.6 °F - 51.8 °F 68% 29.84 in 10.0 mi SSE 10.4 mph - N/A   Scattered Clouds
4:15 AM 60.8 °F - 53.6 °F 77% 29.85 in 10.0 mi SSE 10.4 mph - N/A   Mostly Cloudy
4:35 AM 62.6 °F - 53.6 °F 72% 29.86 in 10.0 mi SSE 11.5 mph - N/A   Overcast
4:55 AM 62.6 °F - 53.6 °F 72% 29.86 in 10.0 mi SE 10.4 mph 16.1 mph N/A   Overcast
5:35 AM 62.6 °F - 53.6 °F 72% 29.83 in 10.0 mi SSE 17.3 mph 21.9 mph N/A   Overcast
5:55 AM 62.6 °F - 53.6 °F 72% 29.82 in 10.0 mi SE 16.1 mph 24.2 mph N/A   Mostly Cloudy
6:15 AM 62.6 °F - 53.6 °F 72% 29.80 in 10.0 mi SE 19.6 mph 23.0 mph N/A   Scattered Clouds
6:35 AM 62.6 °F - 53.6 °F 72% 29.80 in 10.0 mi SE 20.7 mph 29.9 mph N/A   Clear
6:55 AM 62.6 °F - 53.6 °F 72% 29.80 in 10.0 mi SSE 19.6 mph 31.1 mph N/A   Clear
7:35 AM 64.4 °F - 53.6 °F 68% 29.80 in 10.0 mi SSE 23.0 mph 32.2 mph N/A   Clear
7:55 AM 64.4 °F - 55.4 °F 73% 29.79 in 10.0 mi SE 24.2 mph 32.2 mph N/A   Scattered Clouds
8:15 AM 64.4 °F - 55.4 °F 73% 29.79 in 10.0 mi SE 23.0 mph 34.5 mph N/A   Scattered Clouds
8:35 AM 64.4 °F - 55.4 °F 73% 29.79 in 10.0 mi SE 27.6 mph 38.0 mph N/A   Mostly Cloudy
8:55 AM 68.0 °F - 55.4 °F 64% 29.79 in 10.0 mi SSE 20.7 mph 33.4 mph N/A   Mostly Cloudy
9:15 AM 66.2 °F - 55.4 °F 68% 29.79 in 10.0 mi SSE 20.7 mph 33.4 mph N/A   Mostly Cloudy
9:55 AM 66.2 °F - 53.6 °F 64% 29.77 in 10.0 mi SSE 29.9 mph 40.3 mph N/A   Overcast
10:15 AM 68.0 °F - 55.4 °F 64% 29.76 in 10.0 mi SSE 24.2 mph 36.8 mph N/A   Overcast
10:35 AM 68.0 °F - 55.4 °F 64% 29.76 in 10.0 mi South 28.8 mph 38.0 mph N/A   Overcast
11:15 AM 53.6 °F - 51.8 °F 94% 29.83 in 7.0 mi West 15.0 mph 25.3 mph 0.03 in Rain Rain
11:35 AM 51.8 °F - 50.0 °F 94% 29.84 in 5.0 mi West 16.1 mph 24.2 mph 0.07 in Rain Light Rain
11:55 AM 51.8 °F - 50.0 °F 94% 29.86 in 5.0 mi West 18.4 mph 26.5 mph 0.10 in Rain Light Rain
12:15 PM 51.8 °F - 50.0 °F 94% 29.86 in 5.0 mi West 9.2 mph 21.9 mph 0.02 in Rain Rain
12:35 PM 51.8 °F - 50.0 °F 94% 29.88 in 5.0 mi WSW 10.4 mph - 0.05 in Rain Rain
12:55 PM 50.0 °F - 50.0 °F 100% 29.88 in 5.0 mi West 10.4 mph - 0.09 in Rain Light Rain
1:15 PM 50.0 °F - 50.0 °F 100% 29.89 in 7.0 mi WSW 8.1 mph - 0.01 in Rain Light Rain
1:35 PM 50.0 °F - 48.2 °F 94% 29.89 in 5.0 mi WSW 8.1 mph - 0.07 in Rain Rain
1:55 PM 50.0 °F - 48.2 °F 94% 29.90 in 7.0 mi WSW 6.9 mph - 0.12 in Rain Rain
2:15 PM 50.0 °F - 46.4 °F 87% 29.90 in 7.0 mi SW 5.8 mph - 0.04 in Rain Light Rain
2:35 PM 50.0 °F - 46.4 °F 87% 29.90 in 10.0 mi Calm Calm - 0.06 in Rain Light Rain
2:55 PM 50.0 °F - 46.4 °F 87% 29.92 in 7.0 mi West 3.5 mph - 0.09 in Rain Rain
3:15 PM 48.2 °F - 46.4 °F 93% 29.93 in 10.0 mi Calm Calm - 0.01 in Rain Light Rain
3:35 PM 48.2 °F - 46.4 °F 93% 29.91 in 7.0 mi Calm Calm - 0.04 in Rain Light Rain
3:55 PM 48.2 °F - 46.4 °F 93% 29.93 in 7.0 mi Calm Calm - 0.06 in Rain Rain
4:15 PM 48.2 °F - 46.4 °F 93% 29.92 in 10.0 mi Calm Calm - 0.01 in Rain Light Rain
4:35 PM 48.2 °F - 46.4 °F 93% 29.93 in 7.0 mi West 3.5 mph - 0.03 in Rain Rain
4:55 PM 44.6 °F 38.1 °F 42.8 °F 93% 29.95 in 7.0 mi West 13.8 mph - 0.07 in Rain Light Rain
5:15 PM 42.8 °F 35.1 °F 41.0 °F 93% 29.99 in 7.0 mi West 16.1 mph - 0.02 in Rain Rain
5:35 PM 41.0 °F 33.5 °F 37.4 °F 87% 30.00 in 7.0 mi West 13.8 mph - 0.03 in Rain Rain
5:55 PM 39.2 °F 33.0 °F 37.4 °F 93% 30.00 in 10.0 mi WNW 9.2 mph - 0.03 in Rain Rain
6:15 PM 37.4 °F 29.8 °F 37.4 °F 100% 30.02 in 10.0 mi West 11.5 mph - N/A Rain Light Rain
6:35 PM 37.4 °F 29.3 °F 35.6 °F 93% 30.02 in 10.0 mi West 12.7 mph 17.3 mph N/A   Overcast
6:55 PM 37.4 °F 29.3 °F 35.6 °F 93% 30.04 in 10.0 mi West 12.7 mph 20.7 mph N/A   Overcast
7:15 PM 35.6 °F 25.2 °F 35.6 °F 100% 30.04 in 10.0 mi West 18.4 mph 24.2 mph N/A   Overcast
7:35 PM 35.6 °F 27.5 °F 33.8 °F 93% 30.07 in 5.0 mi WNW 11.5 mph 17.3 mph N/A   Overcast
7:55 PM 35.6 °F 29.2 °F 33.8 °F 93% 30.09 in 4.0 mi West 8.1 mph - N/A   Overcast
8:15 PM 35.6 °F 26.6 °F 33.8 °F 93% 30.11 in 2.5 mi WNW 13.8 mph - N/A   Light Drizzle
8:35 PM 33.8 °F 23.5 °F 32.0 °F 93% 30.11 in 7.0 mi WNW 16.1 mph 20.7 mph N/A   Overcast
8:55 PM 33.8 °F 25.8 °F 32.0 °F 93% 30.13 in 10.0 mi WNW 10.4 mph 21.9 mph N/A   Overcast
9:15 PM 33.8 °F 26.4 °F 32.0 °F 93% 30.15 in 7.0 mi West 9.2 mph 17.3 mph N/A   Overcast
9:35 PM 33.8 °F 25.8 °F 32.0 °F 93% 30.15 in 7.0 mi West 10.4 mph - N/A   Overcast
9:55 PM 33.8 °F 24.3 °F 32.0 °F 93% 30.15 in 5.0 mi WNW 13.8 mph 23.0 mph N/A   Overcast
10:15 PM 32.0 °F 21.2 °F 32.0 °F 100% 30.17 in 10.0 mi West 16.1 mph 23.0 mph N/A   Overcast
10:35 PM 32.0 °F 21.2 °F 28.4 °F 87% 30.17 in 10.0 mi WNW 16.1 mph 21.9 mph N/A   Overcast
10:55 PM 32.0 °F 23.6 °F 28.4 °F 87% 30.18 in 10.0 mi WNW 10.4 mph - N/A   Overcast
11:15 PM 32.0 °F 23.6 °F 28.4 °F 87% 30.19 in 10.0 mi West 10.4 mph 18.4 mph N/A   Overcast
11:35 PM 32.0 °F 22.1 °F 28.4 °F 87% 30.18 in 10.0 mi WNW 13.8 mph 20.7 mph N/A   Overcast
11:55 PM 32.0 °F 23.0 °F 26.6 °F 80% 30.20 in 10.0 mi West 11.5 mph - N/A   Scattered Clouds